User: anonymous
Location: Unspecified
(0.0000°N, 0.0000°E)
Time: 17:10:46
(UTC+02:00)
Language:

ARIANE 5 R/B - Orbit

View from above orbital plane
View from above orbital plane
View from above satellite
View from above satellite

Ground track
Ground track

The orbit data is extracted from the following two-line orbital elements,

1 28886U 05041C   14206.51204578 -.00000188  00000-0 -11539-2 0  5836
2 28886 008.2204 040.9404 7189537 035.4907 128.7326 02.24317862 71988
Epoch (UTC): 25 July 2014 12:17:20
Eccentricity: 0.7189537
inclination: 8.2204°
perigee height: 550 km
apogee height: 35994 km
right ascension of ascending node: 40.9404°
argument of perigee: 35.4907°
revolutions per day: 2.24317862
mean anomaly at epoch: 128.7326°
orbit number at epoch: 7198

The dashed part of the orbit path shows where the satellite is in the earth's shadow,  

DLR